Time,TemperatureF,DewpointF,PressureIn,WindDirection,WindDirectionDegrees,WindSpeedMPH,WindSpeedGustMPH,Humidity,HourlyPrecipIn,Conditions,Clouds,dailyrainin,SoftwareType,DateUTC
2013-03-11 00:00:00,64.5,50.0,29.89,SSE,155,1.0,-999.0,59,-99.99,,,0.00,weatherlink.com 1.10,2013-03-11 05:00:00,
2013-03-11 00:16:00,64.4,50.0,29.88,East,94,1.0,-999.0,59,-99.99,,,0.00,weatherlink.com 1.10,2013-03-11 05:16:00,
2013-03-11 00:30:00,64.2,50.0,29.88,South,178,9.0,-999.0,60,-99.99,,,0.00,weatherlink.com 1.10,2013-03-11 05:30:00,
2013-03-11 00:45:00,64.1,50.0,29.87,SE,131,10.0,-999.0,61,-99.99,,,0.00,weatherlink.com 1.10,2013-03-11 05:45:00,
2013-03-11 01:00:00,63.9,50.0,29.88,SSE,148,6.0,-999.0,61,-99.99,,,0.00,weatherlink.com 1.10,2013-03-11 06:00:00,
2013-03-11 01:15:00,63.8,49.0,29.86,SE,144,10.0,-999.0,59,-99.99,,,0.00,weatherlink.com 1.10,2013-03-11 06:15:00,
2013-03-11 01:30:00,63.6,49.0,29.87,SSE,150,6.0,-999.0,59,-99.99,,,0.00,weatherlink.com 1.10,2013-03-11 06:30:00,
2013-03-11 01:45:00,63.4,49.0,29.86,SSE,148,3.0,-999.0,59,-99.99,,,0.00,weatherlink.com 1.10,2013-03-11 06:45:00,
2013-03-11 02:00:00,63.4,49.0,29.86,SSE,160,2.0,-999.0,59,-99.99,,,0.00,weatherlink.com 1.10,2013-03-11 07:00:00,
2013-03-11 02:15:00,62.9,49.0,29.87,SSE,153,6.0,-999.0,60,-99.99,,,0.00,weatherlink.com 1.10,2013-03-11 07:15:00,
2013-03-11 02:30:00,62.8,49.0,29.86,SE,127,4.0,-999.0,61,-99.99,,,0.00,weatherlink.com 1.10,2013-03-11 07:30:00,
2013-03-11 02:45:00,62.6,49.0,29.85,SSW,211,8.0,-999.0,62,-99.99,,,0.00,weatherlink.com 1.10,2013-03-11 07:45:00,
2013-03-11 03:15:00,62.2,49.0,29.81,ESE,112,9.0,-999.0,63,-99.99,,,0.00,weatherlink.com 1.10,2013-03-11 08:15:00,
2013-03-11 03:30:00,62.4,49.0,29.77,SSE,159,14.0,-999.0,63,-99.99,,,0.00,weatherlink.com 1.10,2013-03-11 08:30:00,
2013-03-11 03:45:00,62.4,49.0,29.78,SSE,167,9.0,-999.0,63,-99.99,,,0.00,weatherlink.com 1.10,2013-03-11 08:45:00,
2013-03-11 04:00:00,62.2,49.0,29.79,SE,128,8.0,-999.0,63,-99.99,,,0.00,weatherlink.com 1.10,2013-03-11 09:00:00,
2013-03-11 04:15:00,62.0,50.0,29.80,SE,130,8.0,-999.0,64,-99.99,,,0.00,weatherlink.com 1.10,2013-03-11 09:15:00,
2013-03-11 04:34:00,61.9,49.0,29.81,SE,138,2.0,-999.0,64,-99.99,,,0.00,weatherlink.com 1.10,2013-03-11 09:34:00,
2013-03-11 04:45:00,61.6,49.0,29.81,South,183,10.0,-999.0,64,-99.99,,,0.00,weatherlink.com 1.10,2013-03-11 09:45:00,
2013-03-11 05:00:00,61.5,50.0,29.81,South,174,7.0,-999.0,65,-99.99,,,0.00,weatherlink.com 1.10,2013-03-11 10:00:00,
2013-03-11 05:15:00,61.3,49.0,29.81,SSE,150,5.0,-999.0,65,-99.99,,,0.00,weatherlink.com 1.10,2013-03-11 10:15:00,
2013-03-11 05:30:00,61.0,49.0,29.83,SSW,202,4.0,-999.0,66,-99.99,,,0.00,weatherlink.com 1.10,2013-03-11 10:30:00,
2013-03-11 05:45:00,60.4,50.0,29.82,ENE,63,1.0,-999.0,69,-99.99,,,0.00,weatherlink.com 1.10,2013-03-11 10:45:00,
2013-03-11 06:00:00,58.9,50.0,29.79,South,174,6.0,-999.0,73,-99.99,,,0.01,weatherlink.com 1.10,2013-03-11 11:00:00,
2013-03-11 06:15:00,58.3,50.0,29.78,SSW,205,5.0,-999.0,73,-99.99,,,0.01,weatherlink.com 1.10,2013-03-11 11:15:00,
2013-03-11 06:30:00,58.6,49.0,29.78,SE,142,4.0,-999.0,71,-99.99,,,0.01,weatherlink.com 1.10,2013-03-11 11:30:00,
2013-03-11 06:45:00,58.1,50.0,29.78,South,188,0.0,-999.0,74,-99.99,,,0.01,weatherlink.com 1.10,2013-03-11 11:45:00,
2013-03-11 07:00:00,57.0,51.0,29.76,SSW,210,8.0,-999.0,79,-99.99,,,0.05,weatherlink.com 1.10,2013-03-11 12:00:00,
2013-03-11 07:15:00,57.2,50.0,29.75,SSE,153,10.0,-999.0,78,-99.99,,,0.06,weatherlink.com 1.10,2013-03-11 12:15:00,
2013-03-11 07:30:00,58.0,50.0,29.75,SSE,159,10.0,-999.0,75,-99.99,,,0.06,weatherlink.com 1.10,2013-03-11 12:30:00,
2013-03-11 07:45:00,58.6,51.0,29.76,East,80,2.0,-999.0,75,-99.99,,,0.08,weatherlink.com 1.10,2013-03-11 12:45:00,
2013-03-11 08:00:00,57.3,51.0,29.75,South,171,7.0,-999.0,79,-99.99,,,0.10,weatherlink.com 1.10,2013-03-11 13:00:00,
2013-03-11 08:15:00,56.7,52.0,29.77,SSW,212,1.0,-999.0,83,-99.99,,,0.12,weatherlink.com 1.10,2013-03-11 13:15:00,
2013-03-11 08:30:00,56.0,52.0,29.78,SSE,159,4.0,-999.0,86,-99.99,,,0.16,weatherlink.com 1.10,2013-03-11 13:30:00,
2013-03-11 08:45:00,54.4,52.0,29.82,SSW,204,9.0,-999.0,91,-99.99,,,0.29,weatherlink.com 1.10,2013-03-11 13:45:00,
2013-03-11 09:00:00,54.0,52.0,29.82,SW,232,5.0,-999.0,93,-99.99,,,0.39,weatherlink.com 1.10,2013-03-11 14:00:00,
2013-03-11 09:30:00,53.8,52.0,29.81,SW,232,0.0,-999.0,94,-99.99,,,0.51,weatherlink.com 1.10,2013-03-11 14:30:00,
2013-03-11 09:45:00,53.8,52.0,29.82,SSE,166,0.0,-999.0,95,-99.99,,,0.60,weatherlink.com 1.10,2013-03-11 14:45:00,
2013-03-11 10:00:00,53.9,53.0,29.82,South,177,2.0,-999.0,95,-99.99,,,0.64,weatherlink.com 1.10,2013-03-11 15:00:00,
2013-03-11 10:15:00,54.0,53.0,29.82,South,182,2.0,-999.0,95,-99.99,,,0.69,weatherlink.com 1.10,2013-03-11 15:15:00,
2013-03-11 10:30:00,54.0,53.0,29.82,SSW,200,0.0,-999.0,95,-99.99,,,0.74,weatherlink.com 1.10,2013-03-11 15:30:00,
2013-03-11 10:45:00,54.2,53.0,29.83,WSW,249,1.0,-999.0,95,-99.99,,,0.78,weatherlink.com 1.10,2013-03-11 15:45:00,
2013-03-11 11:00:00,54.1,53.0,29.85,WSW,250,12.0,-999.0,95,-99.99,,,0.83,weatherlink.com 1.10,2013-03-11 16:00:00,
2013-03-11 11:15:00,53.5,52.0,29.81,West,260,0.0,-999.0,95,-99.99,,,0.90,weatherlink.com 1.10,2013-03-11 16:15:00,
2013-03-11 11:30:00,53.5,52.0,29.80,West,260,0.0,-999.0,95,-99.99,,,0.90,weatherlink.com 1.10,2013-03-11 16:30:00,
2013-03-11 11:45:00,53.9,53.0,29.82,West,260,0.0,-999.0,95,-99.99,,,0.92,weatherlink.com 1.10,2013-03-11 16:45:00,
2013-03-11 12:00:00,53.4,52.0,29.83,West,260,0.0,-999.0,95,-99.99,,,0.94,weatherlink.com 1.10,2013-03-11 17:00:00,
2013-03-11 12:15:00,53.2,52.0,29.81,West,260,0.0,-999.0,95,-99.99,,,0.96,weatherlink.com 1.10,2013-03-11 17:15:00,
2013-03-11 12:30:00,53.5,52.0,29.79,West,260,0.0,-999.0,96,-99.99,,,0.98,weatherlink.com 1.10,2013-03-11 17:30:00,
2013-03-11 12:45:00,53.4,52.0,29.79,West,260,0.0,-999.0,95,-99.99,,,1.00,weatherlink.com 1.10,2013-03-11 17:45:00,
2013-03-11 13:00:00,52.4,51.0,29.79,West,260,0.0,-999.0,95,-99.99,,,1.02,weatherlink.com 1.10,2013-03-11 18:00:00,
2013-03-11 13:15:00,53.1,52.0,29.79,West,260,0.0,-999.0,96,-99.99,,,1.04,weatherlink.com 1.10,2013-03-11 18:15:00,
2013-03-11 13:30:00,53.2,52.0,29.78,West,260,0.0,-999.0,96,-99.99,,,1.07,weatherlink.com 1.10,2013-03-11 18:30:00,
2013-03-11 13:45:00,53.2,52.0,29.77,WSW,257,0.0,-999.0,96,-99.99,,,1.12,weatherlink.com 1.10,2013-03-11 18:45:00,
2013-03-11 14:00:00,51.4,50.0,29.78,SW,223,7.0,-999.0,94,-99.99,,,1.16,weatherlink.com 1.10,2013-03-11 19:00:00,
2013-03-11 14:15:00,49.2,48.0,29.79,West,261,8.0,-999.0,94,-99.99,,,1.21,weatherlink.com 1.10,2013-03-11 19:15:00,
2013-03-11 14:30:00,48.6,47.0,29.79,SSW,192,5.0,-999.0,94,-99.99,,,1.26,weatherlink.com 1.10,2013-03-11 19:30:00,
2013-03-11 14:45:00,47.7,46.0,29.78,West,275,1.0,-999.0,94,-99.99,,,1.27,weatherlink.com 1.10,2013-03-11 19:45:00,
2013-03-11 15:00:00,47.8,46.0,29.79,SW,223,0.0,-999.0,94,-99.99,,,1.27,weatherlink.com 1.10,2013-03-11 20:00:00,
2013-03-11 15:15:00,47.8,46.0,29.77,West,269,4.0,-999.0,93,-99.99,,,1.27,weatherlink.com 1.10,2013-03-11 20:15:00,
2013-03-11 15:30:00,47.7,45.0,29.79,SW,234,8.0,-999.0,89,-99.99,,,1.27,weatherlink.com 1.10,2013-03-11 20:30:00,
2013-03-11 15:45:00,47.5,45.0,29.80,SW,230,3.0,-999.0,89,-99.99,,,1.27,weatherlink.com 1.10,2013-03-11 20:45:00,
2013-03-11 16:00:00,47.4,45.0,29.79,WSW,255,0.0,-999.0,90,-99.99,,,1.27,weatherlink.com 1.10,2013-03-11 21:00:00,
2013-03-11 16:15:00,47.0,44.0,29.81,WNW,290,0.0,-999.0,90,-99.99,,,1.27,weatherlink.com 1.10,2013-03-11 21:15:00,
2013-03-11 16:30:00,46.8,44.0,29.82,SW,234,6.0,-999.0,88,-99.99,,,1.27,weatherlink.com 1.10,2013-03-11 21:30:00,
2013-03-11 16:45:00,47.4,43.0,29.81,WNW,292,0.0,-999.0,85,-99.99,,,1.27,weatherlink.com 1.10,2013-03-11 21:45:00,
2013-03-11 17:00:00,47.8,44.0,29.81,WNW,287,9.0,-999.0,85,-99.99,,,1.27,weatherlink.com 1.10,2013-03-11 22:00:00,
2013-03-11 17:15:00,48.3,43.0,29.82,West,265,4.0,-999.0,82,-99.99,,,1.27,weatherlink.com 1.10,2013-03-11 22:15:00,
2013-03-11 17:30:00,48.1,43.0,29.82,WNW,285,0.0,-999.0,81,-99.99,,,1.27,weatherlink.com 1.10,2013-03-11 22:30:00,
2013-03-11 17:45:00,47.2,42.0,29.82,WNW,302,9.0,-999.0,82,-99.99,,,1.27,weatherlink.com 1.10,2013-03-11 22:45:00,
2013-03-11 18:00:00,46.7,42.0,29.83,WNW,293,8.0,-999.0,82,-99.99,,,1.27,weatherlink.com 1.10,2013-03-11 23:00:00,
2013-03-11 18:15:00,46.6,41.0,29.84,West,271,6.0,-999.0,81,-99.99,,,1.27,weatherlink.com 1.10,2013-03-11 23:15:00,
2013-03-11 18:30:00,46.5,41.0,29.85,WNW,288,4.0,-999.0,81,-99.99,,,1.27,weatherlink.com 1.10,2013-03-11 23:30:00,
2013-03-11 18:45:00,46.4,41.0,29.85,NW,319,5.0,-999.0,80,-99.99,,,1.27,weatherlink.com 1.10,2013-03-11 23:45:00,
2013-03-11 19:00:00,46.3,40.0,29.86,WNW,297,10.0,-999.0,80,-99.99,,,1.27,weatherlink.com 1.10,2013-03-12 00:00:00,
2013-03-11 19:15:00,45.9,40.0,29.86,WNW,294,8.0,-999.0,79,-99.99,,,1.27,weatherlink.com 1.10,2013-03-12 00:15:00,
2013-03-11 19:30:00,45.2,39.0,29.87,WNW,301,6.0,-999.0,80,-99.99,,,1.27,weatherlink.com 1.10,2013-03-12 00:30:00,
2013-03-11 19:45:00,44.9,38.0,29.87,WNW,292,10.0,-999.0,77,-99.99,,,1.27,weatherlink.com 1.10,2013-03-12 00:45:00,
2013-03-11 20:00:00,44.6,37.0,29.88,WNW,296,5.0,-999.0,76,-99.99,,,1.27,weatherlink.com 1.10,2013-03-12 01:00:00,
2013-03-11 20:15:00,44.3,37.0,29.88,West,266,6.0,-999.0,76,-99.99,,,1.27,weatherlink.com 1.10,2013-03-12 01:15:00,
2013-03-11 20:30:00,44.0,38.0,29.88,West,281,4.0,-999.0,78,-99.99,,,1.27,weatherlink.com 1.10,2013-03-12 01:30:00,
2013-03-11 20:45:00,43.8,37.0,29.89,WNW,294,0.0,-999.0,78,-99.99,,,1.27,weatherlink.com 1.10,2013-03-12 01:45:00,
2013-03-11 21:00:00,43.5,38.0,29.89,WNW,303,4.0,-999.0,80,-99.99,,,1.27,weatherlink.com 1.10,2013-03-12 02:00:00,
2013-03-11 21:15:00,43.1,38.0,29.90,WNW,303,0.0,-999.0,81,-99.99,,,1.27,weatherlink.com 1.10,2013-03-12 02:15:00,
2013-03-11 21:30:00,42.7,38.0,29.90,WNW,303,0.0,-999.0,83,-99.99,,,1.27,weatherlink.com 1.10,2013-03-12 02:30:00,
2013-03-11 21:45:00,43.0,38.0,29.91,NW,315,7.0,-999.0,81,-99.99,,,1.27,weatherlink.com 1.10,2013-03-12 02:45:00,
2013-03-11 22:00:00,43.3,38.0,29.91,NW,319,9.0,-999.0,81,-99.99,,,1.27,weatherlink.com 1.10,2013-03-12 03:00:00,
2013-03-11 22:15:00,42.6,37.0,29.92,WNW,296,10.0,-999.0,79,-99.99,,,1.27,weatherlink.com 1.10,2013-03-12 03:15:00,
2013-03-11 22:30:00,42.1,36.0,29.92,WNW,298,13.0,-999.0,79,-99.99,,,1.27,weatherlink.com 1.10,2013-03-12 03:30:00,
2013-03-11 22:45:00,41.9,36.0,29.93,WNW,284,10.0,-999.0,80,-99.99,,,1.27,weatherlink.com 1.10,2013-03-12 03:45:00,
2013-03-11 23:00:00,41.6,36.0,29.93,North,350,6.0,-999.0,81,-99.99,,,1.27,weatherlink.com 1.10,2013-03-12 04:00:00,
2013-03-11 23:15:00,41.3,36.0,29.93,WNW,302,9.0,-999.0,80,-99.99,,,1.27,weatherlink.com 1.10,2013-03-12 04:15:00,
2013-03-11 23:30:00,41.1,35.0,29.93,WNW,294,10.0,-999.0,80,-99.99,,,1.27,weatherlink.com 1.10,2013-03-12 04:30:00,
2013-03-11 23:45:00,40.8,35.0,29.93,NW,326,11.0,-999.0,81,-99.99,,,1.27,weatherlink.com 1.10,2013-03-12 04:45:00,